| time (UTC) | temp C | wind direction | speed KPH | gust KPH | rain 1hr cm | rain 24hr cm | rain mn cm | humidity % | barometer mb |
| 20260504110353 | 9 | 242 | 0.0 | 3.2 | 0.00 | 0.00 | 0.00 | 67 | 1015.0 |
| 20260504100240 | 9 | 254 | 1.6 | 8.0 | 0.00 | 0.00 | 0.00 | 69 | 1014.8 |
| 20260504090129 | 9 | 238 | 0.0 | 1.6 | 0.00 | 0.00 | 0.00 | 68 | 1015.1 |
| 20260504081753 | 10 | 205 | 0.0 | 1.6 | 0.00 | 0.00 | 0.00 | 66 | 1015.3 |
| 20260504081250 | 10 | 239 | 0.0 | 0.0 | 0.00 | 0.00 | 0.00 | 66 | 1015.2 |
| 20260504080523 | 10 | 239 | 0.0 | 0.0 | 0.00 | 0.00 | 0.00 | 66 | 1015.2 |
| 20260504070411 | 10 | 147 | 0.0 | 1.6 | 0.00 | 0.00 | 0.00 | 63 | 1015.0 |
| 20260504070132 | 10 | 147 | 0.0 | 1.6 | 0.00 | 0.00 | 0.00 | 63 | 1015.0 |
| 20260504050341 | 9 | 117 | 0.0 | 0.0 | 0.00 | 0.00 | 0.00 | 69 | 1015.4 |
| 20260504045605 | 9 | 117 | 0.0 | 0.0 | 0.00 | 0.00 | 0.00 | 69 | 1015.4 |
| 20260504044836 | 8 | 117 | 0.0 | 0.0 | 0.00 | 0.00 | 0.00 | 69 | 1015.4 |
| 20260504044337 | 8 | 117 | 0.0 | 0.0 | 0.00 | 0.00 | 0.00 | 69 | 1015.4 |
| 20260504043835 | 8 | 117 | 0.0 | 0.0 | 0.00 | 0.00 | 0.00 | 69 | 1015.4 |
| 20260504043336 | 8 | 117 | 0.0 | 0.0 | 0.00 | 0.00 | 0.00 | 70 | 1015.3 |
| 20260504042835 | 8 | 117 | 0.0 | 0.0 | 0.00 | 0.00 | 0.00 | 69 | 1015.4 |
| 20260504042335 | 8 | 117 | 0.0 | 0.0 | 0.00 | 0.00 | 0.00 | 69 | 1015.3 |
| 20260504041833 | 8 | 117 | 0.0 | 0.0 | 0.00 | 0.00 | 0.00 | 69 | 1015.4 |
| 20260504041332 | 8 | 117 | 0.0 | 0.0 | 0.00 | 0.00 | 0.00 | 69 | 1015.2 |
| 20260504040834 | 8 | 117 | 0.0 | 0.0 | 0.00 | 0.00 | 0.00 | 68 | 1015.2 |
| 20260504040332 | 8 | 117 | 0.0 | 0.0 | 0.00 | 0.00 | 0.00 | 68 | 1015.3 |
| 20260504035832 | 8 | 117 | 0.0 | 0.0 | 0.00 | 0.00 | 0.00 | 67 | 1015.3 |
| 20260504035333 | 8 | 117 | 0.0 | 1.6 | 0.00 | 0.00 | 0.00 | 67 | 1015.3 |
| 20260504034831 | 8 | 117 | 0.0 | 1.6 | 0.00 | 0.00 | 0.00 | 67 | 1015.3 |
| 20260504034328 | 8 | 117 | 0.0 | 1.6 | 0.00 | 0.00 | 0.00 | 66 | 1015.5 |
| 20260504034054 | 8 | 117 | 0.0 | 0.0 | 0.00 | 0.00 | 0.00 | 66 | 1015.4 |
| 20260504033330 | 8 | 117 | 0.0 | 0.0 | 0.00 | 0.00 | 0.00 | 65 | 1015.4 |
| 20260504033043 | 8 | 117 | 0.0 | 0.0 | 0.00 | 0.00 | 0.00 | 65 | 1015.3 |
| 20260504032927 | 8 | 117 | 0.0 | 0.0 | 0.00 | 0.00 | 0.00 | 65 | 1015.4 |
| 20260504031829 | 8 | 117 | 0.0 | 0.0 | 0.00 | 0.00 | 0.00 | 65 | 1015.3 |
| 20260504031325 | 9 | 117 | 0.0 | 0.0 | 0.00 | 0.00 | 0.00 | 64 | 1015.4 |
| 20260504030824 | 9 | 117 | 0.0 | 0.0 | 0.00 | 0.00 | 0.00 | 63 | 1015.4 |
| 20260504030325 | 9 | 117 | 0.0 | 0.0 | 0.00 | 0.00 | 0.00 | 63 | 1015.3 |
| 20260504025824 | 9 | 117 | 0.0 | 0.0 | 0.00 | 0.00 | 0.00 | 63 | 1015.3 |
| 20260504025325 | 9 | 117 | 0.0 | 0.0 | 0.00 | 0.00 | 0.00 | 62 | 1015.3 |
| 20260504024825 | 9 | 117 | 0.0 | 0.0 | 0.00 | 0.00 | 0.00 | 61 | 1015.3 |
| 20260504024817 | 9 | 117 | 0.0 | 0.0 | 0.00 | 0.00 | 0.00 | 60 | 1015.3 |
| 20260504023824 | 9 | 117 | 0.0 | 0.0 | 0.00 | 0.00 | 0.00 | 60 | 1015.2 |
| 20260504023325 | 9 | 117 | 0.0 | 0.0 | 0.00 | 0.00 | 0.00 | 60 | 1015.3 |
| 20260504023049 | 10 | 117 | 0.0 | 0.0 | 0.00 | 0.00 | 0.00 | 60 | 1015.2 |
| 20260504022321 | 10 | 117 | 0.0 | 1.6 | 0.00 | 0.00 | 0.00 | 60 | 1015.2 |
| 20260504021821 | 10 | 117 | 0.0 | 1.6 | 0.00 | 0.00 | 0.00 | 60 | 1015.2 |
| 20260504021319 | 10 | 117 | 0.0 | 0.0 | 0.00 | 0.00 | 0.00 | 58 | 1015.2 |
| 20260504020821 | 10 | 117 | 0.0 | 0.0 | 0.00 | 0.00 | 0.00 | 58 | 1015.2 |
| 20260504020319 | 10 | 117 | 0.0 | 0.0 | 0.00 | 0.00 | 0.00 | 57 | 1015.2 |
| 20260504015820 | 10 | 117 | 0.0 | 0.0 | 0.00 | 0.00 | 0.00 | 56 | 1015.1 |
| 20260504015319 | 10 | 117 | 0.0 | 0.0 | 0.00 | 0.00 | 0.00 | 56 | 1015.0 |
| 20260504014821 | 10 | 117 | 0.0 | 0.0 | 0.00 | 0.00 | 0.00 | 56 | 1015.0 |
| 20260504014320 | 10 | 117 | 0.0 | 0.0 | 0.00 | 0.00 | 0.00 | 55 | 1015.1 |
| 20260504013818 | 11 | 117 | 0.0 | 0.0 | 0.00 | 0.00 | 0.00 | 55 | 1015.0 |
| 20260504013318 | 11 | 117 | 0.0 | 0.0 | 0.00 | 0.00 | 0.00 | 55 | 1015.0 |
| 20260504012819 | 11 | 117 | 0.0 | 0.0 | 0.00 | 0.00 | 0.00 | 54 | 1014.9 |
| 20260504012317 | 11 | 117 | 0.0 | 0.0 | 0.00 | 0.00 | 0.00 | 53 | 1014.8 |
| 20260504012047 | 11 | 117 | 0.0 | 0.0 | 0.00 | 0.00 | 0.00 | 53 | 1014.8 |
| 20260504011317 | 11 | 117 | 0.0 | 0.0 | 0.00 | 0.00 | 0.00 | 53 | 1014.7 |
| 20260504010815 | 12 | 117 | 0.0 | 0.0 | 0.00 | 0.00 | 0.00 | 52 | 1014.7 |
| 20260504010315 | 12 | 117 | 0.0 | 0.0 | 0.00 | 0.00 | 0.00 | 50 | 1014.6 |
| 20260504005809 | 12 | 117 | 0.0 | 0.0 | 0.00 | 0.00 | 0.00 | 49 | 1014.6 |
| 20260504005309 | 12 | 117 | 0.0 | 0.0 | 0.00 | 0.00 | 0.00 | 48 | 1014.5 |
| 20260504005038 | 12 | 117 | 0.0 | 0.0 | 0.00 | 0.00 | 0.00 | 48 | 1014.5 |
| 20260504004308 | 13 | 117 | 0.0 | 0.0 | 0.00 | 0.00 | 0.00 | 48 | 1014.5 |
| 20260504003807 | 13 | 117 | 0.0 | 0.0 | 0.00 | 0.00 | 0.00 | 47 | 1014.4 |
| 20260504003524 | 13 | 117 | 0.0 | 0.0 | 0.00 | 0.00 | 0.00 | 46 | 1014.4 |
| 20260504002801 | 13 | 117 | 0.0 | 0.0 | 0.00 | 0.00 | 0.00 | 46 | 1014.4 |
| 20260504002303 | 13 | 117 | 0.0 | 0.0 | 0.00 | 0.00 | 0.00 | 46 | 1014.4 |
| 20260504001755 | 14 | 117 | 0.0 | 0.0 | 0.00 | 0.00 | 0.00 | 45 | 1014.4 |
| 20260504001248 | 14 | 117 | 0.0 | 0.0 | 0.00 | 0.00 | 0.00 | 42 | 1014.5 |
| 20260504000742 | 15 | 117 | 0.0 | 0.0 | 0.00 | 0.00 | 0.00 | 41 | 1014.4 |
| 20260504000547 | 15 | 117 | 0.0 | 0.0 | 0.00 | 0.00 | 0.00 | 40 | 1014.4 |
| 20260504000457 | 15 | 117 | 0.0 | 0.0 | 0.00 | 0.00 | 0.00 | 40 | 1014.4 |
| 20260503235425 | 16 | 117 | 0.0 | 0.0 | 0.00 | 0.00 | 0.00 | 39 | 1014.2 |
| 20260503235312 | 15 | 117 | 0.0 | 0.0 | 0.00 | 0.00 | 0.00 | 40 | 1014.3 |
| 20260503234213 | 16 | 117 | 0.0 | 0.0 | 0.00 | 0.00 | 0.00 | 39 | 1014.1 |
| 20260503233926 | 16 | 117 | 0.0 | 1.6 | 0.00 | 0.00 | 0.00 | 38 | 1014.2 |
| 20260503233200 | 16 | 117 | 0.0 | 3.2 | 0.00 | 0.00 | 0.00 | 38 | 1014.2 |
| 20260503232653 | 16 | 117 | 0.0 | 3.2 | 0.00 | 0.00 | 0.00 | 38 | 1014.2 |
| 20260503232147 | 16 | 322 | 0.0 | 0.0 | 0.00 | 0.00 | 0.00 | 39 | 1014.1 |
| 20260503231640 | 16 | 322 | 0.0 | 1.6 | 0.00 | 0.00 | 0.00 | 39 | 1014.0 |
| 20260503231352 | 17 | 322 | 0.0 | 1.6 | 0.00 | 0.00 | 0.00 | 35 | 1014.0 |
| 20260503230628 | 17 | 258 | 0.0 | 1.6 | 0.00 | 0.00 | 0.00 | 35 | 1014.0 |
| 20260503230122 | 17 | 258 | 0.0 | 3.2 | 0.00 | 0.00 | 0.00 | 34 | 1014.0 |
| 20260503225615 | 17 | 252 | 0.0 | 3.2 | 0.00 | 0.00 | 0.00 | 33 | 1013.9 |
| 20260503225111 | 17 | 254 | 1.6 | 4.8 | 0.00 | 0.00 | 0.00 | 31 | 1014.0 |
| 20260503224603 | 16 | 228 | 1.6 | 8.0 | 0.00 | 0.00 | 0.00 | 29 | 1014.0 |
| 20260503224058 | 16 | 335 | 1.6 | 8.0 | 0.00 | 0.00 | 0.00 | 29 | 1014.1 |
| 20260503223814 | 17 | 38 | 1.6 | 6.4 | 0.00 | 0.00 | 0.00 | 29 | 1014.0 |
| 20260503223051 | 17 | 0 | 1.6 | 6.4 | 0.00 | 0.00 | 0.00 | 28 | 1014.1 |
| 20260503222541 | 17 | 24 | 1.6 | 9.7 | 0.00 | 0.00 | 0.00 | 29 | 1014.0 |
| 20260503222034 | 17 | 229 | 3.2 | 9.7 | 0.00 | 0.00 | 0.00 | 28 | 1014.1 |
| 20260503221753 | 17 | 205 | 3.2 | 8.0 | 0.00 | 0.00 | 0.00 | 29 | 1014.1 |
| 20260503221022 | 17 | 55 | 1.6 | 11.3 | 0.00 | 0.00 | 0.00 | 28 | 1014.1 |
| 20260503220516 | 17 | 256 | 1.6 | 11.3 | 0.00 | 0.00 | 0.00 | 28 | 1014.2 |
| 20260503220235 | 17 | 267 | 1.6 | 6.4 | 0.00 | 0.00 | 0.00 | 28 | 1014.2 |
| 20260503215505 | 17 | 346 | 3.2 | 11.3 | 0.00 | 0.00 | 0.00 | 30 | 1014.1 |
| 20260503215215 | 17 | 69 | 3.2 | 11.3 | 0.00 | 0.00 | 0.00 | 30 | 1014.2 |
| 20260503214452 | 17 | 145 | 3.2 | 9.7 | 0.00 | 0.00 | 0.00 | 29 | 1014.2 |
| 20260503213947 | 17 | 92 | 1.6 | 6.4 | 0.00 | 0.00 | 0.00 | 28 | 1014.2 |
| 20260503213443 | 17 | 244 | 3.2 | 6.4 | 0.00 | 0.00 | 0.00 | 29 | 1014.1 |
| 20260503212944 | 17 | 63 | 3.2 | 6.4 | 0.00 | 0.00 | 0.00 | 27 | 1014.2 |
| 20260503212444 | 17 | 346 | 3.2 | 8.0 | 0.00 | 0.00 | 0.00 | 29 | 1014.3 |
| 20260503211943 | 17 | 279 | 3.2 | 12.9 | 0.00 | 0.00 | 0.00 | 29 | 1014.2 |
| 20260503211441 | 17 | 244 | 4.8 | 20.9 | 0.00 | 0.00 | 0.00 | 29 | 1014.3 |
| 20260503210941 | 17 | 294 | 4.8 | 20.9 | 0.00 | 0.00 | 0.00 | 28 | 1014.3 |
| 20260503210703 | 17 | 217 | 4.8 | 17.7 | 0.00 | 0.00 | 0.00 | 29 | 1014.3 |
| 20260503205941 | 17 | 295 | 3.2 | 11.3 | 0.00 | 0.00 | 0.00 | 28 | 1014.4 |
| 20260503205443 | 17 | 215 | 3.2 | 11.3 | 0.00 | 0.00 | 0.00 | 30 | 1014.3 |
| 20260503204942 | 17 | 230 | 3.2 | 11.3 | 0.00 | 0.00 | 0.00 | 29 | 1014.3 |
| 20260503204441 | 17 | 72 | 1.6 | 8.0 | 0.00 | 0.00 | 0.00 | 31 | 1014.4 |
| 20260503204206 | 17 | 113 | 3.2 | 9.7 | 0.00 | 0.00 | 0.00 | 30 | 1014.4 |
| 20260503203441 | 17 | 43 | 3.2 | 14.5 | 0.00 | 0.00 | 0.00 | 30 | 1014.5 |
| 20260503202943 | 17 | 22 | 4.8 | 14.5 | 0.00 | 0.00 | 0.00 | 29 | 1014.6 |
| 20260503202441 | 18 | 19 | 3.2 | 12.9 | 0.00 | 0.00 | 0.00 | 29 | 1014.6 |
| 20260503201940 | 17 | 190 | 3.2 | 12.9 | 0.00 | 0.00 | 0.00 | 31 | 1014.7 |
| 20260503201443 | 17 | 217 | 3.2 | 14.5 | 0.00 | 0.00 | 0.00 | 29 | 1014.7 |
| 20260503200938 | 17 | 186 | 3.2 | 14.5 | 0.00 | 0.00 | 0.00 | 29 | 1014.8 |
| 20260503200432 | 18 | 275 | 3.2 | 14.5 | 0.00 | 0.00 | 0.00 | 28 | 1014.8 |
| 20260503195925 | 18 | 257 | 3.2 | 12.9 | 0.00 | 0.00 | 0.00 | 30 | 1014.9 |
| 20260503195637 | 18 | 237 | 3.2 | 9.7 | 0.00 | 0.00 | 0.00 | 29 | 1014.9 |
| 20260503194914 | 17 | 55 | 3.2 | 12.9 | 0.00 | 0.00 | 0.00 | 31 | 1015.0 |
| 20260503194407 | 17 | 76 | 3.2 | 12.9 | 0.00 | 0.00 | 0.00 | 29 | 1015.3 |
| 20260503194124 | 17 | 150 | 3.2 | 14.5 | 0.00 | 0.00 | 0.00 | 30 | 1015.3 |
| 20260503193355 | 17 | 296 | 4.8 | 14.5 | 0.00 | 0.00 | 0.00 | 32 | 1015.4 |
| 20260503193119 | 17 | 213 | 4.8 | 14.5 | 0.00 | 0.00 | 0.00 | 29 | 1015.4 |
| 20260503192343 | 18 | 298 | 3.2 | 14.5 | 0.00 | 0.00 | 0.00 | 26 | 1015.5 |
| 20260503191838 | 18 | 325 | 3.2 | 6.4 | 0.00 | 0.00 | 0.00 | 29 | 1015.5 |
| 20260503191333 | 17 | 333 | 3.2 | 11.3 | 0.00 | 0.00 | 0.00 | 31 | 1015.6 |
| 20260503190827 | 17 | 338 | 4.8 | 17.7 | 0.00 | 0.00 | 0.00 | 32 | 1015.7 |
| 20260503190319 | 17 | 252 | 3.2 | 17.7 | 0.00 | 0.00 | 0.00 | 29 | 1015.7 |
| 20260503185815 | 18 | 338 | 3.2 | 14.5 | 0.00 | 0.00 | 0.00 | 29 | 1015.8 |
| 20260503185308 | 18 | 281 | 3.2 | 14.5 | 0.00 | 0.00 | 0.00 | 30 | 1015.8 |
| 20260503184800 | 17 | 240 | 3.2 | 14.5 | 0.00 | 0.00 | 0.00 | 31 | 1016.0 |
| 20260503184255 | 17 | 124 | 3.2 | 12.9 | 0.00 | 0.00 | 0.00 | 31 | 1016.0 |
| 20260503183751 | 17 | 251 | 4.8 | 14.5 | 0.00 | 0.00 | 0.00 | 29 | 1016.0 |
| 20260503183252 | 18 | 310 | 4.8 | 14.5 | 0.00 | 0.00 | 0.00 | 31 | 1016.2 |
| 20260503182754 | 18 | 230 | 3.2 | 14.5 | 0.00 | 0.00 | 0.00 | 32 | 1016.0 |
| 20260503182249 | 17 | 166 | 3.2 | 9.7 | 0.00 | 0.00 | 0.00 | 33 | 1015.9 |
| 20260503181749 | 17 | 214 | 3.2 | 9.7 | 0.00 | 0.00 | 0.00 | 30 | 1016.1 |
| 20260503181250 | 17 | 306 | 4.8 | 9.7 | 0.00 | 0.00 | 0.00 | 30 | 1016.2 |
| 20260503180748 | 17 | 53 | 3.2 | 9.7 | 0.00 | 0.00 | 0.00 | 30 | 1016.3 |
| 20260503180250 | 16 | 91 | 4.8 | 14.5 | 0.00 | 0.00 | 0.00 | 31 | 1016.3 |
| 20260503175748 | 15 | 25 | 4.8 | 14.5 | 0.00 | 0.00 | 0.00 | 34 | 1016.3 |
| 20260503175250 | 15 | 294 | 3.2 | 11.3 | 0.00 | 0.00 | 0.00 | 32 | 1016.4 |
| 20260503175238 | 14 | 273 | 4.8 | 14.5 | 0.00 | 0.00 | 0.00 | 34 | 1016.5 |
| 20260503174249 | 15 | 115 | 4.8 | 14.5 | 0.00 | 0.00 | 0.00 | 32 | 1016.4 |
| 20260503174009 | 16 | 292 | 6.4 | 20.9 | 0.00 | 0.00 | 0.00 | 33 | 1016.6 |
| 20260503173250 | 15 | 285 | 4.8 | 20.9 | 0.00 | 0.00 | 0.00 | 34 | 1016.4 |
| 20260503172746 | 15 | 273 | 3.2 | 11.3 | 0.00 | 0.00 | 0.00 | 33 | 1016.5 |
| 20260503172245 | 15 | 247 | 3.2 | 17.7 | 0.00 | 0.00 | 0.00 | 33 | 1016.6 |
| 20260503171745 | 15 | 355 | 3.2 | 17.7 | 0.00 | 0.00 | 0.00 | 32 | 1016.6 |
| 20260503171513 | 15 | 231 | 4.8 | 16.1 | 0.00 | 0.00 | 0.00 | 33 | 1016.7 |
| 20260503170745 | 15 | 173 | 4.8 | 16.1 | 0.00 | 0.00 | 0.00 | 33 | 1016.6 |
| 20260503170245 | 15 | 20 | 4.8 | 12.9 | 0.00 | 0.00 | 0.00 | 34 | 1016.7 |
| 20260503150737 | 11 | 238 | 6.4 | 19.3 | 0.00 | 0.00 | 0.00 | 40 | 1017.5 |
| 20260503150237 | 11 | 88 | 4.8 | 19.3 | 0.00 | 0.00 | 0.00 | 42 | 1017.5 |
| 20260503140232 | 9 | 320 | 3.2 | 16.1 | 0.00 | 0.00 | 0.00 | 50 | 1017.7 |
| 20260503131215 | 7 | 256 | 1.6 | 6.4 | 0.00 | 0.00 | 0.00 | 59 | 1017.7 |
| 20260503130708 | 7 | 150 | 3.2 | 17.7 | 0.00 | 0.00 | 0.00 | 59 | 1017.8 |
| 20260503130424 | 7 | 227 | 3.2 | 17.7 | 0.00 | 0.00 | 0.00 | 60 | 1017.8 |